Location: Newark
(40.9833°N, 0.0333°W)
Time: 20:31:23
(UTC+00:00)

Explorer 7 - All Passes

Search period start: 28 October 2020 00:00
Search period end: 07 November 2020 00:00
Orbit: 484 x 678 km, 50.3° (Epoch: 27 October)

Date Brightness Start Highest point End Pass type
(mag) Time Alt. Az. Time Alt. Az. Time Alt. Az.
28 Oct - 12:11:03 10° SSE 12:13:17 15° SE 12:15:32 10° E daylight
28 Oct - 13:49:34 10° WSW 13:53:18 77° NNW 13:57:07 10° NE daylight
28 Oct - 15:31:06 10° WNW 15:34:14 24° NNW 15:37:28 10° NE daylight
28 Oct - 17:12:33 10° NW 17:15:39 22° N 17:18:53 10° ENE daylight
28 Oct - 18:52:50 10° NW 18:56:46 54° NNE 19:00:55 10° ESE visible
28 Oct - 20:33:32 10° WNW 20:37:07 29° SW 20:40:54 10° SSE visible
29 Oct - 12:14:38 10° SSW 12:17:47 26° SE 12:20:57 10° ENE daylight
29 Oct - 13:54:25 10° WSW 13:58:03 49° NNW 14:01:46 10° NE daylight
29 Oct - 15:36:13 10° WNW 15:39:11 21° N 15:42:14 10° NE daylight
29 Oct - 17:17:18 10° NW 17:20:35 25° NNE 17:24:01 10° ENE daylight
29 Oct - 18:57:29 10° NW 19:01:30 80° NE 19:05:45 10° ESE visible
29 Oct - 20:38:50 10° W 20:41:40 18° SW 20:44:34 10° S visible
30 Oct - 12:18:46 10° SSW 12:22:21 44° SE 12:25:57 10° ENE daylight
30 Oct - 13:59:24 10° W 14:02:53 35° NNW 14:06:24 10° NE daylight
30 Oct - 15:41:16 10° NW 15:44:08 20° N 15:47:07 10° NE daylight
30 Oct - 17:21:58 10° NW 17:25:29 31° NNE 17:29:09 10° E visible
30 Oct - 19:02:12 10° WNW 19:06:11 65° SW 19:10:23 10° SE visible
30 Oct - 20:45:36 10° WSW 20:46:08 10° SW 20:46:40 10° SW visible
31 Oct - 10:46:38 10° SE 10:47:07 10° SE 10:47:35 10° ESE daylight
31 Oct - 12:23:14 10° SW 12:26:59 76° SE 12:30:45 10° ENE daylight
31 Oct - 14:04:29 10° WNW 14:07:44 27° NNW 14:11:03 10° NE daylight
31 Oct - 15:46:12 10° NW 15:49:07 20° N 15:52:07 10° NE daylight
31 Oct - 17:26:36 10° NW 17:30:19 41° NNE 17:34:13 10° E visible
31 Oct - 19:07:03 10° WNW 19:10:48 39° SW 19:14:46 10° SSE visible
01 Nov - 10:48:57 10° S 10:51:35 18° SE 10:54:11 10° E daylight
01 Nov - 12:27:56 10° WSW 12:31:41 67° NNW 12:35:26 10° NE daylight
01 Nov - 14:09:37 10° WNW 14:12:39 23° N 14:15:44 10° NE daylight
01 Nov - 15:51:01 10° NW 15:54:04 22° N 15:57:12 10° ENE daylight
01 Nov - 17:31:14 10° NW 17:35:06 59° NNE 17:39:09 10° ESE visible
01 Nov - 19:12:06 10° W 19:15:22 24° SW 19:18:48 10° S visible
02 Nov - 10:52:44 10° SSW 10:56:06 30° SE 10:59:26 10° ENE daylight
02 Nov - 12:32:50 10° W 12:36:27 44° NNW 12:40:04 10° NE daylight
02 Nov - 14:14:43 10° NW 14:17:36 20° N 14:20:31 10° NE daylight
02 Nov - 15:55:44 10° NW 15:58:58 26° NNE 16:02:21 10° ENE daylight
02 Nov - 17:35:55 10° WNW 17:39:49 90° SW 17:43:56 10° SE visible
02 Nov - 19:17:37 10° W 19:19:53 15° SW 19:22:12 10° SSW visible
03 Nov - 10:56:59 10° SW 11:00:41 52° SE 11:04:20 10° ENE daylight
03 Nov - 12:37:51 10° W 12:41:16 32° NNW 12:44:41 10° NE daylight
03 Nov - 14:19:44 10° NW 14:22:34 20° N 14:25:26 10° NE daylight
03 Nov - 16:00:22 10° NW 16:03:51 32° NNE 16:07:27 10° E daylight
03 Nov - 17:40:39 10° WNW 17:44:28 55° SW 17:48:29 10° SE visible
04 Nov - 09:23:42 10° SSE 09:25:22 12° SE 09:27:01 10° ESE daylight
04 Nov - 11:01:31 10° SW 11:05:21 87° SE 11:09:05 10° ENE daylight
04 Nov - 12:42:58 10° WNW 12:46:09 25° NNW 12:49:21 10° NE daylight
04 Nov - 14:24:38 10° NW 14:27:31 20° N 14:30:27 10° NE daylight
04 Nov - 16:05:00 10° NW 16:08:40 44° NNE 16:12:29 10° E daylight
04 Nov - 17:45:32 10° WNW 17:49:04 33° SW 17:52:45 10° SSE visible
05 Nov - 09:26:52 10° S 09:29:51 21° SE 09:32:47 10° E daylight
05 Nov - 11:06:17 10° WSW 11:10:03 59° NNW 11:13:46 10° NE daylight
05 Nov - 12:48:05 10° WNW 12:51:04 22° N 12:54:03 10° NE daylight
05 Nov - 14:29:25 10° NW 14:32:27 23° NNE 14:35:33 10° ENE daylight
05 Nov - 16:09:37 10° NW 16:13:25 66° NNE 16:17:23 10° ESE daylight
05 Nov - 17:50:42 10° W 17:53:37 20° SW 17:56:38 10° S visible
06 Nov - 09:30:49 10° SSW 09:34:23 36° SE 09:37:52 10° ENE daylight
06 Nov - 11:11:13 10° W 11:14:49 40° NNW 11:18:23 10° NE daylight
06 Nov - 12:53:11 10° NW 12:56:00 20° N 12:58:51 10° NE daylight
06 Nov - 14:34:06 10° NW 14:37:21 27° NNE 14:40:41 10° ENE daylight
06 Nov - 16:14:18 10° WNW 16:18:07 79° SW 16:22:06 10° SE daylight
06 Nov - 17:56:37 10° WSW 17:58:06 12° SW 17:59:35 10° SSW visible
